Year,Month,Day,Hour,Minute,Value (Times are PST for temperature in C)
2016,11,14,00,00,10.10
2016,11,14,00,01,10.10
2016,11,14,00,02,10.10
2016,11,14,00,03,10.10
2016,11,14,00,04,10.10
2016,11,14,00,05,10.10
2016,11,14,00,06,10.10
2016,11,14,00,07,10.10
2016,11,14,00,08,10.10
2016,11,14,00,09,10.10
2016,11,14,00,10,10.10
2016,11,14,00,11,10.10
2016,11,14,00,12,10.10
2016,11,14,00,13,10.10
2016,11,14,00,14,10.10
2016,11,14,00,15,10.20
2016,11,14,00,16,10.20
2016,11,14,00,17,10.20
2016,11,14,00,18,10.20
2016,11,14,00,19,10.10
2016,11,14,00,20,10.10
2016,11,14,00,21,10.10
2016,11,14,00,22,10.10
2016,11,14,00,23,10.10
2016,11,14,00,24,10.10
2016,11,14,00,25,10.10
2016,11,14,00,26,10.10
2016,11,14,00,27,10.10
2016,11,14,00,28,10.10
2016,11,14,00,29,10.10
2016,11,14,00,30,10.10
2016,11,14,00,31,10.10
2016,11,14,00,32,10.10
2016,11,14,00,33,10.10
2016,11,14,00,34,10.10
2016,11,14,00,35,10.10
2016,11,14,00,36,10.10
2016,11,14,00,37,10.10
2016,11,14,00,38,10.00
2016,11,14,00,39,10.00
2016,11,14,00,40,10.00
2016,11,14,00,41,10.00
2016,11,14,00,42,10.00
2016,11,14,00,43,10.00
2016,11,14,00,44,9.90
2016,11,14,00,45,9.90
2016,11,14,00,46,9.90
2016,11,14,00,47,9.90
2016,11,14,00,48,9.90
2016,11,14,00,49,9.90
2016,11,14,00,50,9.90
2016,11,14,00,51,9.90
2016,11,14,00,52,9.90
2016,11,14,00,53,9.90
2016,11,14,00,54,9.90
2016,11,14,00,55,9.90
2016,11,14,00,56,9.90
2016,11,14,00,57,9.90
2016,11,14,00,58,9.90
2016,11,14,00,59,9.80
2016,11,14,01,00,9.80
2016,11,14,01,01,9.80
2016,11,14,01,02,9.80
2016,11,14,01,03,9.80
2016,11,14,01,04,9.80
2016,11,14,01,05,9.80
2016,11,14,01,06,9.80
2016,11,14,01,07,9.80
2016,11,14,01,08,9.80
2016,11,14,01,09,9.70
2016,11,14,01,10,9.80
2016,11,14,01,11,9.80
2016,11,14,01,12,9.80
2016,11,14,01,13,9.80
2016,11,14,01,14,9.80
2016,11,14,01,15,9.80
2016,11,14,01,16,9.70
2016,11,14,01,17,9.80
2016,11,14,01,18,9.80
2016,11,14,01,19,9.80
2016,11,14,01,20,9.80
2016,11,14,01,21,9.80
2016,11,14,01,22,9.80
2016,11,14,01,23,9.80
2016,11,14,01,24,9.80
2016,11,14,01,25,9.80
2016,11,14,01,26,9.80
2016,11,14,01,27,9.70
2016,11,14,01,28,9.80
2016,11,14,01,29,9.70
2016,11,14,01,30,9.70
2016,11,14,01,31,9.70
2016,11,14,01,32,9.70
2016,11,14,01,33,9.70
2016,11,14,01,34,9.70
2016,11,14,01,35,9.70
2016,11,14,01,36,9.60
2016,11,14,01,37,9.60
2016,11,14,01,38,9.60
2016,11,14,01,39,9.60
2016,11,14,01,40,9.60
2016,11,14,01,41,9.60
2016,11,14,01,42,9.60
2016,11,14,01,43,9.60
2016,11,14,01,44,9.60
2016,11,14,01,45,9.60
2016,11,14,01,46,9.50
2016,11,14,01,47,9.50
2016,11,14,01,48,9.50
2016,11,14,01,49,9.50
2016,11,14,01,50,9.50
2016,11,14,01,51,9.50
2016,11,14,01,52,9.50
2016,11,14,01,53,9.50
2016,11,14,01,54,9.50
2016,11,14,01,55,9.50
2016,11,14,01,56,9.40
2016,11,14,01,57,9.50
2016,11,14,01,58,9.40
2016,11,14,01,59,9.40
2016,11,14,02,00,9.40
2016,11,14,02,01,9.40
2016,11,14,02,02,9.40
2016,11,14,02,03,9.40
2016,11,14,02,04,9.40
2016,11,14,02,05,9.40
2016,11,14,02,06,9.40
2016,11,14,02,07,9.50
2016,11,14,02,08,9.50
2016,11,14,02,09,9.50
2016,11,14,02,10,9.50
2016,11,14,02,11,9.50
2016,11,14,02,12,9.50
2016,11,14,02,13,9.50
2016,11,14,02,14,9.50
2016,11,14,02,15,9.50
2016,11,14,02,16,9.40
2016,11,14,02,17,9.40
2016,11,14,02,18,9.40
2016,11,14,02,19,9.40
2016,11,14,02,20,9.40
2016,11,14,02,21,9.30
2016,11,14,02,22,9.30
2016,11,14,02,23,9.30
2016,11,14,02,24,9.30
2016,11,14,02,25,9.20
2016,11,14,02,26,9.20
2016,11,14,02,27,9.20
2016,11,14,02,28,9.20
2016,11,14,02,29,9.10
2016,11,14,02,30,9.10
2016,11,14,02,31,9.10
2016,11,14,02,32,9.00
2016,11,14,02,33,9.00
2016,11,14,02,34,9.00
2016,11,14,02,35,8.90
2016,11,14,02,36,8.90
2016,11,14,02,37,8.90
2016,11,14,02,38,8.90
2016,11,14,02,39,8.80
2016,11,14,02,40,8.80
2016,11,14,02,41,8.80
2016,11,14,02,42,8.80
2016,11,14,02,43,8.80
2016,11,14,02,44,8.80
2016,11,14,02,45,8.70
2016,11,14,02,46,8.70
2016,11,14,02,47,8.70
2016,11,14,02,48,8.70
2016,11,14,02,49,8.70
2016,11,14,02,50,8.70
2016,11,14,02,51,8.70
2016,11,14,02,52,8.60
2016,11,14,02,53,8.60
2016,11,14,02,54,8.60
2016,11,14,02,55,8.60
2016,11,14,02,56,8.60
2016,11,14,02,57,8.60
2016,11,14,02,58,8.60
2016,11,14,02,59,8.60
2016,11,14,03,00,8.60
2016,11,14,03,01,8.60
2016,11,14,03,02,8.60
2016,11,14,03,03,8.60
2016,11,14,03,04,8.60
2016,11,14,03,05,8.60
2016,11,14,03,06,8.50
2016,11,14,03,07,8.50
2016,11,14,03,08,8.50
2016,11,14,03,09,8.50
2016,11,14,03,10,8.40
2016,11,14,03,11,8.40
2016,11,14,03,12,8.40
2016,11,14,03,13,8.40
2016,11,14,03,14,8.40
2016,11,14,03,15,8.30
2016,11,14,03,16,8.30
2016,11,14,03,17,8.30
2016,11,14,03,18,8.30
2016,11,14,03,19,8.30
2016,11,14,03,20,8.30
2016,11,14,03,21,8.30
2016,11,14,03,22,8.30
2016,11,14,03,23,8.30
2016,11,14,03,24,8.30
2016,11,14,03,25,8.30
2016,11,14,03,26,8.30
2016,11,14,03,27,8.30
2016,11,14,03,28,8.30
2016,11,14,03,29,8.30
2016,11,14,03,30,8.30
2016,11,14,03,31,8.30
2016,11,14,03,32,8.30
2016,11,14,03,33,8.30
2016,11,14,03,34,8.20
2016,11,14,03,35,8.20
2016,11,14,03,36,8.20
2016,11,14,03,37,8.20
2016,11,14,03,38,8.20
2016,11,14,03,39,8.20
2016,11,14,03,40,8.20
2016,11,14,03,41,8.20
2016,11,14,03,42,8.10
2016,11,14,03,43,8.10
2016,11,14,03,44,8.10
2016,11,14,03,45,8.10
2016,11,14,03,46,8.10
2016,11,14,03,47,8.10
2016,11,14,03,48,8.00
2016,11,14,03,49,8.00
2016,11,14,03,50,8.00
2016,11,14,03,51,8.00
2016,11,14,03,52,8.00
2016,11,14,03,53,8.00
2016,11,14,03,54,8.00
2016,11,14,03,55,8.00
2016,11,14,03,56,8.00
2016,11,14,03,57,7.90
2016,11,14,03,58,7.90
2016,11,14,03,59,7.90
2016,11,14,04,00,7.90
2016,11,14,04,01,7.90
2016,11,14,04,02,7.80
2016,11,14,04,03,7.80
2016,11,14,04,04,7.80
2016,11,14,04,05,7.80
2016,11,14,04,06,7.80
2016,11,14,04,07,7.80
2016,11,14,04,08,7.80
2016,11,14,04,09,7.80
2016,11,14,04,10,7.70
2016,11,14,04,11,7.70
2016,11,14,04,12,7.70
2016,11,14,04,13,7.70
2016,11,14,04,14,7.70
2016,11,14,04,15,7.70
2016,11,14,04,16,7.70
2016,11,14,04,17,7.70
2016,11,14,04,18,7.70
2016,11,14,04,19,7.70
2016,11,14,04,20,7.70
2016,11,14,04,21,7.60
2016,11,14,04,22,7.60
2016,11,14,04,23,7.60
2016,11,14,04,24,7.60
2016,11,14,04,25,7.50
2016,11,14,04,26,7.50
2016,11,14,04,27,7.40
2016,11,14,04,28,7.40
2016,11,14,04,29,7.40
2016,11,14,04,30,7.40
2016,11,14,04,31,7.40
2016,11,14,04,32,7.30
2016,11,14,04,33,7.30
2016,11,14,04,34,7.30
2016,11,14,04,35,7.30
2016,11,14,04,36,7.30
2016,11,14,04,37,7.20
2016,11,14,04,38,7.20
2016,11,14,04,39,7.20
2016,11,14,04,40,7.20
2016,11,14,04,41,7.10
2016,11,14,04,42,7.10
2016,11,14,04,43,7.00
2016,11,14,04,44,7.00
2016,11,14,04,45,7.00
2016,11,14,04,46,6.90
2016,11,14,04,47,6.90
2016,11,14,04,48,6.80
2016,11,14,04,49,6.80
2016,11,14,04,50,6.80
2016,11,14,04,51,6.70
2016,11,14,04,52,6.70
2016,11,14,04,53,6.70
2016,11,14,04,54,6.70
2016,11,14,04,55,6.70
2016,11,14,04,56,6.60
2016,11,14,04,57,6.60
2016,11,14,04,58,6.60
2016,11,14,04,59,6.60
2016,11,14,05,00,6.50
2016,11,14,05,01,6.50
2016,11,14,05,02,6.50
2016,11,14,05,03,6.50
2016,11,14,05,04,6.50
2016,11,14,05,05,6.40
2016,11,14,05,06,6.40
2016,11,14,05,07,6.40
2016,11,14,05,08,6.40
2016,11,14,05,09,6.40
2016,11,14,05,10,6.40
2016,11,14,05,11,6.40
2016,11,14,05,12,6.40
2016,11,14,05,13,6.40
2016,11,14,05,14,6.40
2016,11,14,05,15,6.30
2016,11,14,05,16,6.30
2016,11,14,05,17,6.30
2016,11,14,05,18,6.30
2016,11,14,05,19,6.30
2016,11,14,05,20,6.30
2016,11,14,05,21,6.30
2016,11,14,05,22,6.30
2016,11,14,05,23,6.20
2016,11,14,05,24,6.20
2016,11,14,05,25,6.20
2016,11,14,05,26,6.20
2016,11,14,05,27,6.20
2016,11,14,05,28,6.20
2016,11,14,05,29,6.20
2016,11,14,05,30,6.20
2016,11,14,05,31,6.20
2016,11,14,05,32,6.20
2016,11,14,05,33,6.10
2016,11,14,05,34,6.10
2016,11,14,05,35,6.10
2016,11,14,05,36,6.10
2016,11,14,05,37,6.10
2016,11,14,05,38,6.10
2016,11,14,05,39,6.00
2016,11,14,05,40,6.00
2016,11,14,05,41,6.00
2016,11,14,05,42,6.00
2016,11,14,05,43,6.00
2016,11,14,05,44,6.00
2016,11,14,05,45,6.00
2016,11,14,05,46,6.00
2016,11,14,05,47,6.00
2016,11,14,05,48,6.00
2016,11,14,05,49,6.00
2016,11,14,05,50,6.00
2016,11,14,05,51,6.00
2016,11,14,05,52,6.10
2016,11,14,05,53,6.10
2016,11,14,05,54,6.10
2016,11,14,05,55,6.10
2016,11,14,05,56,6.10
2016,11,14,05,57,6.10
2016,11,14,05,58,6.10
2016,11,14,05,59,6.00
2016,11,14,06,00,6.00
2016,11,14,06,01,6.00
2016,11,14,06,02,6.00
2016,11,14,06,03,6.10
2016,11,14,06,04,6.10
2016,11,14,06,05,6.10
2016,11,14,06,06,6.10
2016,11,14,06,07,6.10
2016,11,14,06,08,6.10
2016,11,14,06,09,6.10
2016,11,14,06,10,6.10
2016,11,14,06,11,6.10
2016,11,14,06,12,6.10
2016,11,14,06,13,6.10
2016,11,14,06,14,6.10
2016,11,14,06,15,6.20
2016,11,14,06,16,6.20
2016,11,14,06,17,6.20
2016,11,14,06,18,6.20
2016,11,14,06,19,6.20
2016,11,14,06,20,6.20
2016,11,14,06,21,6.30
2016,11,14,06,22,6.30
2016,11,14,06,23,6.30
2016,11,14,06,24,6.30
2016,11,14,06,25,6.40
2016,11,14,06,26,6.40
2016,11,14,06,27,6.40
2016,11,14,06,28,6.40
2016,11,14,06,29,6.40
2016,11,14,06,30,6.50
2016,11,14,06,31,6.50
2016,11,14,06,32,6.50
2016,11,14,06,33,6.50
2016,11,14,06,34,6.50
2016,11,14,06,35,6.50
2016,11,14,06,36,6.50
2016,11,14,06,37,6.40
2016,11,14,06,38,6.50
2016,11,14,06,39,6.50
2016,11,14,06,40,6.50
2016,11,14,06,41,6.50
2016,11,14,06,42,6.40
2016,11,14,06,43,6.40
2016,11,14,06,44,6.40
2016,11,14,06,45,6.40
2016,11,14,06,46,6.40
2016,11,14,06,47,6.40
2016,11,14,06,48,6.50
2016,11,14,06,49,6.50
2016,11,14,06,50,6.60
2016,11,14,06,51,6.60
2016,11,14,06,52,6.60
2016,11,14,06,53,6.60
2016,11,14,06,54,6.60
2016,11,14,06,55,6.60
2016,11,14,06,56,6.60
2016,11,14,06,57,6.70
2016,11,14,06,58,6.70
2016,11,14,06,59,6.70
2016,11,14,07,00,6.70
2016,11,14,07,01,6.70
2016,11,14,07,02,6.70
2016,11,14,07,03,6.70
2016,11,14,07,04,6.80
2016,11,14,07,05,6.80
2016,11,14,07,06,6.80
2016,11,14,07,07,6.80
2016,11,14,07,08,6.90
2016,11,14,07,09,6.90
2016,11,14,07,10,6.90
2016,11,14,07,11,6.90
2016,11,14,07,12,6.90
2016,11,14,07,13,6.90
2016,11,14,07,14,6.90
2016,11,14,07,15,6.90
2016,11,14,07,16,6.90
2016,11,14,07,17,6.90
2016,11,14,07,18,6.80
2016,11,14,07,19,6.80
2016,11,14,07,20,6.80
2016,11,14,07,21,6.80
2016,11,14,07,22,6.80
2016,11,14,07,23,6.80
2016,11,14,07,24,6.80
2016,11,14,07,25,6.80
2016,11,14,07,26,6.80
2016,11,14,07,27,6.90
2016,11,14,07,28,6.90
2016,11,14,07,29,6.90
2016,11,14,07,30,6.90
2016,11,14,07,31,6.90
2016,11,14,07,32,6.90
2016,11,14,07,33,6.90
2016,11,14,07,34,6.90
2016,11,14,07,35,6.90
2016,11,14,07,36,6.90
2016,11,14,07,37,6.90
2016,11,14,07,38,6.90
2016,11,14,07,39,7.00
2016,11,14,07,40,7.00
2016,11,14,07,41,7.00
2016,11,14,07,42,7.00
2016,11,14,07,43,7.00
2016,11,14,07,44,6.90
2016,11,14,07,45,6.90
2016,11,14,07,46,6.90
2016,11,14,07,47,6.90
2016,11,14,07,48,6.90
2016,11,14,07,49,7.00
2016,11,14,07,50,7.00
2016,11,14,07,51,7.00
2016,11,14,07,52,7.00
2016,11,14,07,53,7.00
2016,11,14,07,54,7.00
2016,11,14,07,55,6.90
2016,11,14,07,56,6.90
2016,11,14,07,57,6.90
2016,11,14,07,58,6.90
2016,11,14,07,59,7.00
2016,11,14,08,00,7.00
2016,11,14,08,01,7.00
2016,11,14,08,02,7.00
2016,11,14,08,03,7.00
2016,11,14,08,04,7.10
2016,11,14,08,05,7.10
2016,11,14,08,06,7.20
2016,11,14,08,07,7.20
2016,11,14,08,08,7.30
2016,11,14,08,09,7.40
2016,11,14,08,10,7.50
2016,11,14,08,11,7.60
2016,11,14,08,12,7.60
2016,11,14,08,13,7.60
2016,11,14,08,14,7.60
2016,11,14,08,15,7.60
2016,11,14,08,16,7.60
2016,11,14,08,17,7.70
2016,11,14,08,18,7.70
2016,11,14,08,19,7.80
2016,11,14,08,20,7.80
2016,11,14,08,21,7.90
2016,11,14,08,22,7.80
2016,11,14,08,23,7.80
2016,11,14,08,24,7.80
2016,11,14,08,25,7.80
2016,11,14,08,26,7.80
2016,11,14,08,27,7.90
2016,11,14,08,28,7.90
2016,11,14,08,29,7.90
2016,11,14,08,30,8.00
2016,11,14,08,31,8.00
2016,11,14,08,32,8.10
2016,11,14,08,33,8.20
2016,11,14,08,34,8.30
2016,11,14,08,35,8.40
2016,11,14,08,36,8.50
2016,11,14,08,37,8.60
2016,11,14,08,38,8.70
2016,11,14,08,39,8.80
2016,11,14,08,40,8.80
2016,11,14,08,41,8.80
2016,11,14,08,42,8.90
2016,11,14,08,43,8.90
2016,11,14,08,44,8.90
2016,11,14,08,45,8.90
2016,11,14,08,46,9.00
2016,11,14,08,47,9.00
2016,11,14,08,48,8.90
2016,11,14,08,49,8.80
2016,11,14,08,50,8.70
2016,11,14,08,51,8.70
2016,11,14,08,52,8.70
2016,11,14,08,53,8.70
2016,11,14,08,54,8.70
2016,11,14,08,55,8.80
2016,11,14,08,56,8.90
2016,11,14,08,57,8.80
2016,11,14,08,58,8.80
2016,11,14,08,59,8.80
2016,11,14,09,00,8.80
2016,11,14,09,01,8.80
2016,11,14,09,02,8.90
2016,11,14,09,03,8.90
2016,11,14,09,04,9.00
2016,11,14,09,05,9.10
2016,11,14,09,06,9.20
2016,11,14,09,07,9.20
2016,11,14,09,08,9.30
2016,11,14,09,09,9.30
2016,11,14,09,10,9.40
2016,11,14,09,11,9.50
2016,11,14,09,12,9.50
2016,11,14,09,13,9.60
2016,11,14,09,14,9.70
2016,11,14,09,15,9.70
2016,11,14,09,16,9.70
2016,11,14,09,17,9.70
2016,11,14,09,18,9.70
2016,11,14,09,19,9.70
2016,11,14,09,20,9.70
2016,11,14,09,21,9.70
2016,11,14,09,22,9.70
2016,11,14,09,23,9.70
2016,11,14,09,24,9.70
2016,11,14,09,25,9.70
2016,11,14,09,26,9.70
2016,11,14,09,27,9.70
2016,11,14,09,28,9.70
2016,11,14,09,29,9.70
2016,11,14,09,30,9.70
2016,11,14,09,31,9.70
2016,11,14,09,32,9.70
2016,11,14,09,33,9.70
2016,11,14,09,34,9.80
2016,11,14,09,35,9.80
2016,11,14,09,36,9.90
2016,11,14,09,37,9.90
2016,11,14,09,38,9.90
2016,11,14,09,39,10.00
2016,11,14,09,40,10.00
2016,11,14,09,41,10.00
2016,11,14,09,42,10.00
2016,11,14,09,43,10.10
2016,11,14,09,44,10.10
2016,11,14,09,45,10.10
2016,11,14,09,46,10.20
2016,11,14,09,47,10.20
2016,11,14,09,48,10.30
2016,11,14,09,49,10.30
2016,11,14,09,50,10.40
2016,11,14,09,51,10.40
2016,11,14,09,52,10.40
2016,11,14,09,53,10.40
2016,11,14,09,54,10.40
2016,11,14,09,55,10.40
2016,11,14,09,56,10.50
2016,11,14,09,57,10.50
2016,11,14,09,58,10.60
2016,11,14,09,59,10.60
2016,11,14,10,00,10.60
2016,11,14,10,01,10.70
2016,11,14,10,02,10.80
2016,11,14,10,03,10.80
2016,11,14,10,04,10.80
2016,11,14,10,05,10.80
2016,11,14,10,06,10.90
2016,11,14,10,07,11.00
2016,11,14,10,08,11.10
2016,11,14,10,09,11.10
2016,11,14,10,10,11.20
2016,11,14,10,11,11.20
2016,11,14,10,12,11.30
2016,11,14,10,13,11.40
2016,11,14,10,14,11.50
2016,11,14,10,15,11.50
2016,11,14,10,16,11.60
2016,11,14,10,17,11.60
2016,11,14,10,18,11.70
2016,11,14,10,19,11.80
2016,11,14,10,20,11.80
2016,11,14,10,21,11.90
2016,11,14,10,22,12.00
2016,11,14,10,23,12.00
2016,11,14,10,24,12.10
2016,11,14,10,25,12.10
2016,11,14,10,26,12.10
2016,11,14,10,27,12.10
2016,11,14,10,28,12.00
2016,11,14,10,29,12.00
2016,11,14,10,30,12.10
2016,11,14,10,31,12.10
2016,11,14,10,32,12.10
2016,11,14,10,33,12.10
2016,11,14,10,34,12.10
2016,11,14,10,35,12.10
2016,11,14,10,36,12.10
2016,11,14,10,37,12.20
2016,11,14,10,38,12.20
2016,11,14,10,39,12.20
2016,11,14,10,40,12.20
2016,11,14,10,41,12.20
2016,11,14,10,42,12.20
2016,11,14,10,43,12.20
2016,11,14,10,44,12.20
2016,11,14,10,45,12.30
2016,11,14,10,46,12.30
2016,11,14,10,47,12.30
2016,11,14,10,48,12.30
2016,11,14,10,49,12.30
2016,11,14,10,50,12.30
2016,11,14,10,51,12.30
2016,11,14,10,52,12.30
2016,11,14,10,53,12.30
2016,11,14,10,54,12.30
2016,11,14,10,55,12.30
2016,11,14,10,56,12.30
2016,11,14,10,57,12.30
2016,11,14,10,58,12.30
2016,11,14,10,59,12.30
2016,11,14,11,00,12.30
2016,11,14,11,01,12.20
2016,11,14,11,02,12.20
2016,11,14,11,03,12.20
2016,11,14,11,04,12.20
2016,11,14,11,05,12.20
2016,11,14,11,06,12.20
2016,11,14,11,07,12.20
2016,11,14,11,08,12.20
2016,11,14,11,09,12.20
2016,11,14,11,10,12.20
2016,11,14,11,11,12.20
2016,11,14,11,12,12.20
2016,11,14,11,13,12.20
2016,11,14,11,14,12.20
2016,11,14,11,15,12.20
2016,11,14,11,16,12.30
2016,11,14,11,17,12.30
2016,11,14,11,18,12.30
2016,11,14,11,19,12.30
2016,11,14,11,20,12.30
2016,11,14,11,21,12.30
2016,11,14,11,22,12.30
2016,11,14,11,23,12.30
2016,11,14,11,24,12.30
2016,11,14,11,25,12.40
2016,11,14,11,26,12.40
2016,11,14,11,27,12.40
2016,11,14,11,28,12.40
2016,11,14,11,29,12.30
2016,11,14,11,30,12.30
2016,11,14,11,31,12.30
2016,11,14,11,32,12.20
2016,11,14,11,33,12.20
2016,11,14,11,34,12.10
2016,11,14,11,35,12.00
2016,11,14,11,36,12.00
2016,11,14,11,37,11.90
2016,11,14,11,38,11.90
2016,11,14,11,39,11.80
2016,11,14,11,40,11.70
2016,11,14,11,41,11.70
2016,11,14,11,42,11.70
2016,11,14,11,43,11.60
2016,11,14,11,44,11.60
2016,11,14,11,45,11.60
2016,11,14,11,46,11.60
2016,11,14,11,47,11.60
2016,11,14,11,48,11.60
2016,11,14,11,49,11.60
2016,11,14,11,50,11.60
2016,11,14,11,51,11.60
2016,11,14,11,52,11.60
2016,11,14,11,53,11.70
2016,11,14,11,54,11.70
2016,11,14,11,55,11.60
2016,11,14,11,56,11.60
2016,11,14,11,57,11.60
2016,11,14,11,58,11.60
2016,11,14,11,59,11.60
2016,11,14,12,00,11.50
2016,11,14,12,01,11.50
2016,11,14,12,02,11.50
2016,11,14,12,03,11.40
2016,11,14,12,04,11.40
2016,11,14,12,05,11.40
2016,11,14,12,06,11.30
2016,11,14,12,07,11.30
2016,11,14,12,08,11.30
2016,11,14,12,09,11.30
2016,11,14,12,10,11.20
2016,11,14,12,11,11.20
2016,11,14,12,12,11.20
2016,11,14,12,13,11.20
2016,11,14,12,14,11.20
2016,11,14,12,15,11.20
2016,11,14,12,16,11.20
2016,11,14,12,17,11.20
2016,11,14,12,18,11.20
2016,11,14,12,19,11.20
2016,11,14,12,20,11.10
2016,11,14,12,21,11.10
2016,11,14,12,22,11.10
2016,11,14,12,23,11.10
2016,11,14,12,24,11.10
2016,11,14,12,25,11.10
2016,11,14,12,26,11.10
2016,11,14,12,27,11.20
2016,11,14,12,28,11.20
2016,11,14,12,29,11.20
2016,11,14,12,30,11.20
2016,11,14,12,31,11.20
2016,11,14,12,32,11.30
2016,11,14,12,33,11.30
2016,11,14,12,34,11.30
2016,11,14,12,35,11.30
2016,11,14,12,36,11.30
2016,11,14,12,37,11.30
2016,11,14,12,38,11.30
2016,11,14,12,39,11.30
2016,11,14,12,40,11.30
2016,11,14,12,41,11.30
2016,11,14,12,42,11.30
2016,11,14,12,43,11.40
2016,11,14,12,44,11.40
2016,11,14,12,45,11.40
2016,11,14,12,46,11.40
2016,11,14,12,47,11.40
2016,11,14,12,48,11.40
2016,11,14,12,49,11.40
2016,11,14,12,50,11.50
2016,11,14,12,51,11.50
2016,11,14,12,52,11.60
2016,11,14,12,53,11.60
2016,11,14,12,54,11.70
2016,11,14,12,55,11.70
2016,11,14,12,56,11.70
2016,11,14,12,57,11.80
2016,11,14,12,58,11.70
2016,11,14,12,59,11.70
2016,11,14,13,00,11.70
2016,11,14,13,01,11.70
2016,11,14,13,02,11.70
2016,11,14,13,03,11.70
2016,11,14,13,04,11.70
2016,11,14,13,05,11.70
2016,11,14,13,06,11.70
2016,11,14,13,07,11.60
2016,11,14,13,08,11.60
2016,11,14,13,09,11.60
2016,11,14,13,10,11.50
2016,11,14,13,11,11.50
2016,11,14,13,12,11.40
2016,11,14,13,13,11.30
2016,11,14,13,14,11.30
2016,11,14,13,15,11.30
2016,11,14,13,16,11.20
2016,11,14,13,17,11.20
2016,11,14,13,18,11.20
2016,11,14,13,19,11.20
2016,11,14,13,20,11.20
2016,11,14,13,21,11.20
2016,11,14,13,22,11.20
2016,11,14,13,23,11.20
2016,11,14,13,24,11.20
2016,11,14,13,25,11.20
2016,11,14,13,26,11.20
2016,11,14,13,27,11.20
2016,11,14,13,28,11.20
2016,11,14,13,29,11.20
2016,11,14,13,30,11.20
2016,11,14,13,31,11.10
2016,11,14,13,32,11.10
2016,11,14,13,33,11.10
2016,11,14,13,34,11.10
2016,11,14,13,35,11.10
2016,11,14,13,36,11.00
2016,11,14,13,37,11.00
2016,11,14,13,38,11.00
2016,11,14,13,39,11.10
2016,11,14,13,40,11.10
2016,11,14,13,41,11.20
2016,11,14,13,42,11.20
2016,11,14,13,43,11.30
2016,11,14,13,44,11.30
2016,11,14,13,45,11.30
2016,11,14,13,46,11.30
2016,11,14,13,47,11.30
2016,11,14,13,48,11.30
2016,11,14,13,49,11.30
2016,11,14,13,50,11.30
2016,11,14,13,51,11.30
2016,11,14,13,52,11.30
2016,11,14,13,53,11.30
2016,11,14,13,54,11.30
2016,11,14,13,55,11.30
2016,11,14,13,56,11.30
2016,11,14,13,57,11.30
2016,11,14,13,58,11.30
2016,11,14,13,59,11.30
2016,11,14,14,00,11.30
2016,11,14,14,01,11.30
2016,11,14,14,02,11.30
2016,11,14,14,03,11.30
2016,11,14,14,04,11.30
2016,11,14,14,05,11.30
2016,11,14,14,06,11.30
2016,11,14,14,07,11.20
2016,11,14,14,08,11.20
2016,11,14,14,09,11.20
2016,11,14,14,10,11.20
2016,11,14,14,11,11.10
2016,11,14,14,12,11.10
2016,11,14,14,13,11.10
2016,11,14,14,14,11.10
2016,11,14,14,15,11.10
2016,11,14,14,16,11.10
2016,11,14,14,17,11.10
2016,11,14,14,18,11.10
2016,11,14,14,19,11.10
2016,11,14,14,20,11.10
2016,11,14,14,21,11.10
2016,11,14,14,22,11.10
2016,11,14,14,23,11.10
2016,11,14,14,24,11.10
2016,11,14,14,25,11.10
2016,11,14,14,26,11.10
2016,11,14,14,27,11.10
2016,11,14,14,28,11.10
2016,11,14,14,29,11.10
2016,11,14,14,30,11.10
2016,11,14,14,31,11.10
2016,11,14,14,32,11.10
2016,11,14,14,33,11.10
2016,11,14,14,34,11.10
2016,11,14,14,35,11.10
2016,11,14,14,36,11.10
2016,11,14,14,37,11.10
2016,11,14,14,38,11.10
2016,11,14,14,39,11.10
2016,11,14,14,40,11.10
2016,11,14,14,41,11.10
2016,11,14,14,42,11.10
2016,11,14,14,43,11.10
2016,11,14,14,44,11.10
2016,11,14,14,45,11.10
2016,11,14,14,46,11.10
2016,11,14,14,47,11.10
2016,11,14,14,48,11.10
2016,11,14,14,49,11.10
2016,11,14,14,50,11.20
2016,11,14,14,51,11.20
2016,11,14,14,52,11.20
2016,11,14,14,53,11.20
2016,11,14,14,54,11.20
2016,11,14,14,55,11.20
2016,11,14,14,56,11.20
2016,11,14,14,57,11.20
2016,11,14,14,58,11.20
2016,11,14,14,59,11.20
2016,11,14,15,00,11.20
2016,11,14,15,01,11.20
2016,11,14,15,02,11.20
2016,11,14,15,03,11.20
2016,11,14,15,04,11.20
2016,11,14,15,05,11.20
2016,11,14,15,06,11.20
2016,11,14,15,07,11.20
2016,11,14,15,08,11.20
2016,11,14,15,09,11.20
2016,11,14,15,10,11.10
2016,11,14,15,11,11.10
2016,11,14,15,12,11.10
2016,11,14,15,13,11.10
2016,11,14,15,14,11.10
2016,11,14,15,15,11.10
2016,11,14,15,16,11.10
2016,11,14,15,17,11.10
2016,11,14,15,18,11.10
2016,11,14,15,19,11.10
2016,11,14,15,20,11.10
2016,11,14,15,21,11.10
2016,11,14,15,22,11.10
2016,11,14,15,23,11.10
2016,11,14,15,24,11.10
2016,11,14,15,25,11.10
2016,11,14,15,26,11.10
2016,11,14,15,27,11.10
2016,11,14,15,28,11.00
2016,11,14,15,29,11.00
2016,11,14,15,30,11.00
2016,11,14,15,31,11.00
2016,11,14,15,32,11.00
2016,11,14,15,33,11.00
2016,11,14,15,34,11.00
2016,11,14,15,35,11.00
2016,11,14,15,36,10.90
2016,11,14,15,37,10.90
2016,11,14,15,38,10.90
2016,11,14,15,39,10.90
2016,11,14,15,40,10.90
2016,11,14,15,41,10.90
2016,11,14,15,42,10.90
2016,11,14,15,43,10.90
2016,11,14,15,44,10.90
2016,11,14,15,45,10.90
2016,11,14,15,46,10.90
2016,11,14,15,47,10.90
2016,11,14,15,48,10.90
2016,11,14,15,49,10.90
2016,11,14,15,50,10.90
2016,11,14,15,51,10.90
2016,11,14,15,52,10.90
2016,11,14,15,53,10.90
2016,11,14,15,54,10.90
2016,11,14,15,55,10.90
2016,11,14,15,56,10.90
2016,11,14,15,57,10.90
2016,11,14,15,58,10.90
2016,11,14,15,59,10.90
2016,11,14,16,00,10.90
2016,11,14,16,01,10.90
2016,11,14,16,02,10.90
2016,11,14,16,03,10.90
2016,11,14,16,04,10.90
2016,11,14,16,05,10.90
2016,11,14,16,06,10.90
2016,11,14,16,07,10.90
2016,11,14,16,08,10.90
2016,11,14,16,09,11.00
2016,11,14,16,10,11.00
2016,11,14,16,11,11.00
2016,11,14,16,12,11.00
2016,11,14,16,13,11.00
2016,11,14,16,14,11.00
2016,11,14,16,15,11.00
2016,11,14,16,16,11.00
2016,11,14,16,17,11.00
2016,11,14,16,18,11.00
2016,11,14,16,19,11.10
2016,11,14,16,20,11.10
2016,11,14,16,21,11.00
2016,11,14,16,22,11.00
2016,11,14,16,23,11.00
2016,11,14,16,24,11.00
2016,11,14,16,25,11.00
2016,11,14,16,26,11.00
2016,11,14,16,27,11.00
2016,11,14,16,28,11.00
2016,11,14,16,29,11.00
2016,11,14,16,30,11.00
2016,11,14,16,31,11.00
2016,11,14,16,32,11.00
2016,11,14,16,33,11.00
2016,11,14,16,34,10.90
2016,11,14,16,35,10.90
2016,11,14,16,36,10.90
2016,11,14,16,37,11.00
2016,11,14,16,38,10.90
2016,11,14,16,39,10.90
2016,11,14,16,40,10.90
2016,11,14,16,41,10.90
2016,11,14,16,42,10.90
2016,11,14,16,43,10.90
2016,11,14,16,44,10.90
2016,11,14,16,45,10.90
2016,11,14,16,46,10.90
2016,11,14,16,47,10.90
2016,11,14,16,48,10.90
2016,11,14,16,49,10.80
2016,11,14,16,50,10.80
2016,11,14,16,51,10.80
2016,11,14,16,52,10.80
2016,11,14,16,53,10.80
2016,11,14,16,54,10.80
2016,11,14,16,55,10.80
2016,11,14,16,56,10.80
2016,11,14,16,57,10.70
2016,11,14,16,58,10.70
2016,11,14,16,59,10.70
2016,11,14,17,00,10.70
2016,11,14,17,01,10.70
2016,11,14,17,02,10.70
2016,11,14,17,03,10.70
2016,11,14,17,04,10.70
2016,11,14,17,05,10.70
2016,11,14,17,06,10.70
2016,11,14,17,07,10.70
2016,11,14,17,08,10.70
2016,11,14,17,09,10.70
2016,11,14,17,10,10.70
2016,11,14,17,11,10.70
2016,11,14,17,12,10.70
2016,11,14,17,13,10.70
2016,11,14,17,14,10.70
2016,11,14,17,15,10.60
2016,11,14,17,16,10.70
2016,11,14,17,17,10.70
2016,11,14,17,18,10.70
2016,11,14,17,19,10.70
2016,11,14,17,20,10.60
2016,11,14,17,21,10.60
2016,11,14,17,22,10.60
2016,11,14,17,23,10.60
2016,11,14,17,24,10.60
2016,11,14,17,25,10.60
2016,11,14,17,26,10.60
2016,11,14,17,27,10.60
2016,11,14,17,28,10.60
2016,11,14,17,29,10.60
2016,11,14,17,30,10.60
2016,11,14,17,31,10.60
2016,11,14,17,32,10.60
2016,11,14,17,33,10.60
2016,11,14,17,34,10.60
2016,11,14,17,35,10.60
2016,11,14,17,36,10.60
2016,11,14,17,37,10.60
2016,11,14,17,38,10.60
2016,11,14,17,39,10.60
2016,11,14,17,40,10.60
2016,11,14,17,41,10.60
2016,11,14,17,42,10.60